sampling_time,wmo_synop_id,msc_id,stn_nam,stn_elev,lat,long,stn_typ,date_tm,rpt_typ,result_time,crnt_buoy_lat,crnt_buoy_lat_qa_summary,crnt_buoy_long,crnt_buoy_long_qa_summary,avg_air_temp_pst10mts,avg_air_temp_pst10mts_qa_summary,avg_sea_sfc_temp_pst10mts,avg_sea_sfc_temp_pst10mts_qa_summary,avg_batry_volt_pst10mts,avg_batry_volt_pst10mts_qa_summary,avg_solr_panl_crnt_pst10mts,avg_solr_panl_crnt_pst10mts_qa_summary,avg_wtr_lvl_snsr_volt_pst10mts,avg_wtr_lvl_snsr_volt_pst10mts_qa_summary,avg_wave_hgt_pst20mts,avg_wave_hgt_pst20mts_qa_summary,pk_wave_hgt_pst20mts,pk_wave_hgt_pst20mts_qa_summary,sig_wave_pd_pst20mts,sig_wave_pd_pst20mts_qa_summary,sig_wave_hgt_pst20mts,sig_wave_hgt_pst20mts_qa_summary,avg_max_wave_hgt_pst20mts,avg_max_wave_hgt_pst20mts_qa_summary,avg_max_wave_pd_pst20mts,avg_max_wave_pd_pst20mts_qa_summary,avg_wave_pd_pst20mts,avg_wave_pd_pst20mts_qa_summary,pk_wave_pd_pst20mts,pk_wave_pd_pst20mts_qa_summary,avg_stn_pres_pst10mts,avg_stn_pres_pst10mts_qa_summary,avg_wnd_spd_pst10mts,avg_wnd_spd_pst10mts_qa_summary,avg_wnd_dir_pst10mts,avg_wnd_dir_pst10mts_qa_summary,max_avg_wnd_spd_pst10mts,max_avg_wnd_spd_pst10mts_qa_summary,wnd_snsr_vert_disp,wnd_snsr_vert_disp_qa_summary,pres_tend_amt_pst3hrs,pres_tend_amt_pst3hrs_data_flag,pres_tend_char_pst3hrs,pres_tend_char_pst3hrs_data_flag,avg_mslp_pst10mts,avg_mslp_pst10mts_data_flag,avg_stn_pres_pst10mts_1,avg_stn_pres_pst10mts_1_qa_summary,avg_stn_pres_pst10mts_2,avg_stn_pres_pst10mts_2_qa_summary,avg_wnd_spd_pst10mts_1,avg_wnd_spd_pst10mts_1_qa_summary,avg_wnd_spd_pst10mts_2,avg_wnd_spd_pst10mts_2_qa_summary,avg_wnd_dir_pst10mts_1,avg_wnd_dir_pst10mts_1_qa_summary,avg_wnd_dir_pst10mts_2,avg_wnd_dir_pst10mts_2_qa_summary,max_avg_wnd_spd_pst10mts_1,max_avg_wnd_spd_pst10mts_1_qa_summary,max_avg_wnd_spd_pst10mts_2,max_avg_wnd_spd_pst10mts_2_qa_summary
2022-10-14T00:00:00Z,44489,9302001,WEST CHEDABUCTO BAY,0,45.48687,-61.14100000000001,18,2022-10-14T00:00:00.000Z,108,2022-10-14T00:03:23.114Z,45.48725,100,-61.14106999999999,100,12.8,100,13.3,100,12.6,100,0.0,100,3.6,100,0.1,100,0.3,100,2.7,100,0.2,100,0.2,100,2.7,100,2.5,100,2.2,100,1027.5,100,14.0,100,177,100,16.9,100,5,100,1.3,1,0,1,1027.5,1,1027.5,100,1027.5,100,14.0,100,13.3,100,177,100,179,100,16.9,100,16.2,100
2022-10-14T00:10:00Z,44489,9302001,WEST CHEDABUCTO BAY,0,45.48687,-61.14100000000001,18,2022-10-14T00:10:00.000Z,110,2022-10-14T00:13:30.810Z,,-1,,-1,13.5,100,14.0,100,12.6,100,0.0,100,3.6,100,,-1,,-1,,-1,,-1,,-1,,-1,,-1,,-1,1027.6,100,10.8,100,182,100,13.7,100,5,100,1.5,1,1,1,1027.6,1,1027.6,100,1027.6,100,10.8,100,10.1,100,182,100,184,100,13.7,100,13.7,100
2022-10-14T00:20:00Z,44489,9302001,WEST CHEDABUCTO BAY,0,45.48687,-61.14100000000001,18,2022-10-14T00:20:00.000Z,110,2022-10-14T00:23:33.069Z,45.48723,100,-61.14108,100,12.9,100,13.3,100,12.6,100,0.0,100,3.6,100,,-1,,-1,,-1,,-1,,-1,,-1,,-1,,-1,1027.6,100,13.7,100,167,100,19.4,100,5,100,1.3,1,1,1,1027.6,1,1027.6,100,1027.6,100,13.7,100,13.0,100,167,100,169,100,19.4,100,19.1,100
2022-10-14T00:30:00Z,44489,9302001,WEST CHEDABUCTO BAY,0,45.48687,-61.14100000000001,18,2022-10-14T00:30:00.000Z,110,2022-10-14T00:33:32.870Z,45.48723,100,-61.14106999999999,100,12.8,100,13.3,100,12.6,100,0.0,100,3.6,100,,-1,,-1,,-1,,-1,,-1,,-1,,-1,,-1,1027.7,100,15.1,100,161,100,19.8,100,5,100,1.3,1,1,1,1027.7,1,1027.7,100,1027.7,100,15.1,100,14.0,100,161,100,164,100,19.8,100,19.1,100
2022-10-14T00:40:00Z,44489,9302001,WEST CHEDABUCTO BAY,0,45.48687,-61.14100000000001,18,2022-10-14T00:40:00.000Z,110,2022-10-14T00:43:34.895Z,45.48723,100,-61.14105,100,12.8,100,13.3,100,12.6,100,0.0,100,3.6,100,,-1,,-1,,-1,,-1,,-1,,-1,,-1,,-1,1027.6,100,15.1,100,166,100,20.9,100,5,100,1.1,1,1,1,1027.6,1,1027.6,100,1027.6,100,15.1,100,14.4,100,166,100,168,100,20.9,100,20.5,100
2022-10-14T00:50:00Z,44489,9302001,WEST CHEDABUCTO BAY,0,45.48687,-61.14100000000001,18,2022-10-14T00:50:00.000Z,110,2022-10-14T00:53:31.479Z,45.48723,100,-61.14108,100,12.8,100,13.3,100,12.6,100,0.0,100,3.6,100,,-1,,-1,,-1,,-1,,-1,,-1,,-1,,-1,1027.6,100,15.5,100,179,100,19.8,100,5,100,1.0,1,1,1,1027.6,1,1027.6,100,1027.7,100,15.5,100,14.8,100,179,100,181,100,19.8,100,19.4,100
2022-10-14T01:00:00Z,44489,9302001,WEST CHEDABUCTO BAY,0,45.48687,-61.14100000000001,18,2022-10-14T01:00:00.000Z,108,2022-10-14T01:03:35.038Z,45.48723,100,-61.14106999999999,100,12.7,100,13.3,100,12.6,100,0.0,100,3.6,100,0.1,100,0.3,100,2.8,100,0.2,100,0.2,100,3.1,100,2.5,100,7.4,100,1027.8,100,14.0,100,168,100,20.5,100,5,100,1.1,1,1,1,1027.8,1,1027.8,100,1027.8,100,14.0,100,13.7,100,168,100,171,100,20.5,100,20.2,100
2022-10-14T01:10:00Z,44489,9302001,WEST CHEDABUCTO BAY,0,45.48687,-61.14100000000001,18,2022-10-14T01:10:00.000Z,110,2022-10-14T01:15:45.467Z,45.48723,100,-61.14106999999999,100,12.7,100,13.3,100,12.6,100,0.0,100,3.6,100,,-1,,-1,,-1,,-1,,-1,,-1,,-1,,-1,1027.8,100,14.4,100,182,100,20.9,100,5,100,1.0,1,1,1,1027.8,1,1027.8,100,1027.9,100,14.4,100,14.0,100,182,100,184,100,20.9,100,20.2,100
2022-10-14T01:20:00Z,44489,9302001,WEST CHEDABUCTO BAY,0,45.48687,-61.14100000000001,18,2022-10-14T01:20:00.000Z,110,2022-10-14T01:22:46.597Z,45.48723,100,-61.14105,100,12.8,100,13.3,100,12.6,100,0.0,100,3.6,100,,-1,,-1,,-1,,-1,,-1,,-1,,-1,,-1,1027.8,100,14.8,100,174,100,19.1,100,5,100,1.0,1,1,1,1027.8,1,1027.8,100,1027.8,100,14.8,100,14.0,100,174,100,176,100,19.1,100,18.7,100
2022-10-14T01:30:00Z,44489,9302001,WEST CHEDABUCTO BAY,0,45.48687,-61.14100000000001,18,2022-10-14T01:30:00.000Z,110,2022-10-14T01:32:50.125Z,45.48725,100,-61.14106999999999,100,12.9,100,13.4,100,12.6,100,0.0,100,3.6,100,,-1,,-1,,-1,,-1,,-1,,-1,,-1,,-1,1027.9,100,15.5,100,167,100,20.5,100,5,100,0.8,1,1,1,1027.9,1,1027.9,100,1027.9,100,15.5,100,14.4,100,167,100,169,100,20.5,100,19.8,100
2022-10-14T01:40:00Z,44489,9302001,WEST CHEDABUCTO BAY,0,45.48687,-61.14100000000001,18,2022-10-14T01:40:00.000Z,110,2022-10-14T01:42:49.752Z,45.4872,100,-61.14102,100,12.9,100,13.4,100,12.5,100,0.0,100,3.6,100,,-1,,-1,,-1,,-1,,-1,,-1,,-1,,-1,1028.0,100,14.4,100,169,100,19.4,100,5,100,0.8,1,3,1,1028.0,1,1028.0,100,1028.1,100,14.4,100,13.3,100,169,100,171,100,19.4,100,18.4,100
2022-10-14T01:50:00Z,44489,9302001,WEST CHEDABUCTO BAY,0,45.48687,-61.14100000000001,18,2022-10-14T01:50:00.000Z,110,2022-10-14T01:52:50.909Z,45.48723,100,-61.14105,100,12.9,100,13.4,100,12.5,100,0.0,100,3.6,100,,-1,,-1,,-1,,-1,,-1,,-1,,-1,,-1,1028.1,100,14.0,100,163,100,18.0,100,5,100,0.8,1,3,1,1028.1,1,1028.1,100,1028.2,100,14.0,100,12.6,100,163,100,164,100,18.0,100,15.5,100
2022-10-14T02:00:00Z,44489,9302001,WEST CHEDABUCTO BAY,0,45.48687,-61.14100000000001,18,2022-10-14T02:00:00.000Z,108,2022-10-14T02:02:54.659Z,45.48723,100,-61.14105,100,13.0,100,13.4,100,12.5,100,0.0,100,3.6,100,0.1,100,0.3,100,3.4,100,0.2,100,0.2,100,3.6,100,2.7,100,7.1,100,1027.9,100,15.8,100,163,100,20.2,100,5,100,0.3,1,3,1,1027.9,1,1027.9,100,1027.9,100,15.8,100,14.4,100,163,100,165,100,20.2,100,19.8,100
2022-10-14T02:10:00Z,44489,9302001,WEST CHEDABUCTO BAY,0,45.48687,-61.14100000000001,18,2022-10-14T02:10:00.000Z,110,2022-10-14T02:16:09.985Z,45.48723,100,-61.14103000000001,100,13.1,100,13.4,100,12.6,100,0.0,100,3.6,100,,-1,,-1,,-1,,-1,,-1,,-1,,-1,,-1,1028.1,100,14.8,100,167,100,19.8,100,5,100,0.4,1,3,1,1028.1,1,1028.1,100,1028.1,100,14.8,100,13.0,100,167,100,169,100,19.8,100,19.4,100
2022-10-14T02:20:00Z,44489,9302001,WEST CHEDABUCTO BAY,0,45.48687,-61.14100000000001,18,2022-10-14T02:20:00.000Z,110,2022-10-14T02:23:13.351Z,45.48723,100,-61.14103000000001,100,13.1,100,13.4,100,12.6,100,0.0,100,3.6,100,,-1,,-1,,-1,,-1,,-1,,-1,,-1,,-1,1028.2,100,13.0,100,163,100,16.6,100,5,100,0.8,1,3,1,1028.2,1,1028.2,100,1028.3,100,13.0,100,11.2,100,163,100,165,100,16.6,100,15.5,100
2022-10-14T02:30:00Z,44489,9302001,WEST CHEDABUCTO BAY,0,45.48687,-61.14100000000001,18,2022-10-14T02:30:00.000Z,110,2022-10-14T02:33:09.090Z,45.48723,100,-61.14103000000001,100,13.0,100,13.4,100,12.6,100,0.0,100,3.6,100,,-1,,-1,,-1,,-1,,-1,,-1,,-1,,-1,1028.3,100,13.0,100,172,100,16.9,100,5,100,0.8,1,3,1,1028.3,1,1028.3,100,1028.3,100,13.0,100,11.5,100,172,100,174,100,16.9,100,15.8,100
2022-10-14T02:40:00Z,44489,9302001,WEST CHEDABUCTO BAY,0,45.48687,-61.14100000000001,18,2022-10-14T02:40:00.000Z,110,2022-10-14T02:43:13.105Z,45.48725,100,-61.14106999999999,100,12.9,100,13.4,100,12.5,100,0.0,100,3.6,100,,-1,,-1,,-1,,-1,,-1,,-1,,-1,,-1,1028.4,100,14.0,100,152,100,18.4,100,5,100,0.9,1,3,1,1028.4,1,1028.4,100,1028.4,100,14.0,100,12.2,100,152,100,153,100,18.4,100,17.6,100
2022-10-14T02:50:00Z,44489,9302001,WEST CHEDABUCTO BAY,0,45.48687,-61.14100000000001,18,2022-10-14T02:50:00.000Z,110,2022-10-14T02:53:15.053Z,45.4872,100,-61.14105,100,12.8,100,13.4,100,12.5,100,0.0,100,3.6,100,,-1,,-1,,-1,,-1,,-1,,-1,,-1,,-1,1028.5,100,16.2,100,152,100,21.2,100,5,100,1.1,1,3,1,1028.5,1,1028.5,100,1028.5,100,16.2,100,14.4,100,152,100,153,100,21.2,100,20.5,100
2022-10-14T03:00:00Z,44489,9302001,WEST CHEDABUCTO BAY,0,45.48687,-61.14100000000001,18,2022-10-14T03:00:00.000Z,108,2022-10-14T03:03:17.590Z,45.48718,100,-61.14103000000001,100,12.6,100,13.3,100,12.5,100,0.0,100,3.6,100,0.1,100,0.3,100,3.4,100,0.2,100,0.2,100,3.6,100,2.7,100,5.9,100,1028.7,100,14.8,100,155,100,17.3,100,5,100,1.2,1,3,1,1028.7,1,1028.7,100,1028.7,100,14.8,100,13.3,100,155,100,156,100,17.3,100,16.2,100
2022-10-14T03:10:00Z,44489,9302001,WEST CHEDABUCTO BAY,0,45.48687,-61.14100000000001,18,2022-10-14T03:10:00.000Z,110,2022-10-14T03:16:19.737Z,45.4872,100,-61.14105,100,12.5,100,13.3,100,12.5,100,0.0,100,3.6,100,,-1,,-1,,-1,,-1,,-1,,-1,,-1,,-1,1028.6,100,14.8,100,167,100,18.0,100,5,100,0.9,1,3,1,1028.6,1,1028.6,100,1028.6,100,14.8,100,13.7,100,167,100,169,100,18.0,100,17.3,100
2022-10-14T03:20:00Z,44489,9302001,WEST CHEDABUCTO BAY,0,45.48687,-61.14100000000001,18,2022-10-14T03:20:00.000Z,110,2022-10-14T03:23:22.706Z,45.48722,100,-61.14105,100,12.4,100,13.3,100,12.5,100,0.0,100,3.6,100,,-1,,-1,,-1,,-1,,-1,,-1,,-1,,-1,1028.5,100,15.5,100,172,100,17.6,100,5,100,0.9,1,3,1,1028.5,1,1028.5,100,1028.5,100,15.5,100,14.4,100,172,100,174,100,17.6,100,17.3,100
2022-10-14T03:30:00Z,44489,9302001,WEST CHEDABUCTO BAY,0,45.48687,-61.14100000000001,18,2022-10-14T03:30:00.000Z,110,2022-10-14T03:33:24.664Z,45.48725,100,-61.14108,100,12.4,100,13.3,100,12.5,100,0.0,100,3.6,100,,-1,,-1,,-1,,-1,,-1,,-1,,-1,,-1,1028.6,100,14.4,100,176,100,18.4,100,5,100,0.9,1,3,1,1028.6,1,1028.6,100,1028.6,100,14.4,100,13.3,100,176,100,178,100,18.4,100,18.0,100
2022-10-14T03:40:00Z,44489,9302001,WEST CHEDABUCTO BAY,0,45.48687,-61.14100000000001,18,2022-10-14T03:40:00.000Z,110,2022-10-14T03:43:22.982Z,45.48722,100,-61.14106999999999,100,12.3,100,13.3,100,12.5,100,0.0,100,3.6,100,,-1,,-1,,-1,,-1,,-1,,-1,,-1,,-1,1028.6,100,11.9,100,168,100,15.1,100,5,100,1.0,1,1,1,1028.6,1,1028.6,100,1028.6,100,11.9,100,10.8,100,168,100,170,100,15.1,100,15.5,100
2022-10-14T03:50:00Z,44489,9302001,WEST CHEDABUCTO BAY,0,45.48687,-61.14100000000001,18,2022-10-14T03:50:00.000Z,110,2022-10-14T03:53:28.082Z,45.48723,100,-61.14106999999999,100,12.3,100,13.3,100,12.5,100,0.0,100,3.6,100,,-1,,-1,,-1,,-1,,-1,,-1,,-1,,-1,1028.6,100,11.2,100,178,100,16.2,100,5,100,1.0,1,1,1,1028.6,1,1028.6,100,1028.6,100,11.2,100,10.4,100,178,100,180,100,16.2,100,15.5,100
2022-10-14T04:00:00Z,44489,9302001,WEST CHEDABUCTO BAY,0,45.48687,-61.14100000000001,18,2022-10-14T04:00:00.000Z,108,2022-10-14T04:03:31.912Z,45.48723,100,-61.14103000000001,100,12.2,100,13.3,100,12.5,100,0.0,100,3.6,100,0.1,100,0.3,100,3.1,100,0.2,100,0.2,100,3.1,100,2.6,100,8.3,100,1028.7,100,10.4,100,175,100,16.2,100,5,100,0.9,1,1,1,1028.7,1,1028.7,100,1028.7,100,10.4,100,10.1,100,175,100,178,100,16.2,100,15.5,100
2022-10-14T04:10:00Z,44489,9302001,WEST CHEDABUCTO BAY,0,45.48687,-61.14100000000001,18,2022-10-14T04:10:00.000Z,110,2022-10-14T04:15:41.167Z,45.48723,100,-61.14105,100,12.3,100,13.3,100,12.5,100,0.0,100,3.6,100,,-1,,-1,,-1,,-1,,-1,,-1,,-1,,-1,1028.6,100,11.2,100,152,100,14.0,100,5,100,0.8,1,1,1,1028.6,1,1028.6,100,1028.6,100,11.2,100,10.4,100,152,100,154,100,14.0,100,14.0,100
2022-10-14T04:20:00Z,44489,9302001,WEST CHEDABUCTO BAY,0,45.48687,-61.14100000000001,18,2022-10-14T04:20:00.000Z,110,2022-10-14T04:22:42.640Z,45.48722,100,-61.14105,100,12.3,100,13.3,100,12.5,100,0.0,100,3.6,100,,-1,,-1,,-1,,-1,,-1,,-1,,-1,,-1,1028.6,100,11.2,100,138,100,14.4,100,5,100,0.8,1,1,1,1028.6,1,1028.6,100,1028.6,100,11.2,100,10.4,100,138,100,140,100,14.4,100,14.4,100
2022-10-14T04:30:00Z,44489,9302001,WEST CHEDABUCTO BAY,0,45.48687,-61.14100000000001,18,2022-10-14T04:30:00.000Z,110,2022-10-14T04:32:44.160Z,45.48723,100,-61.14106999999999,100,12.3,100,13.3,100,12.5,100,0.0,100,3.6,100,,-1,,-1,,-1,,-1,,-1,,-1,,-1,,-1,1028.5,100,14.0,100,127,100,18.4,100,5,100,0.6,1,0,1,1028.5,1,1028.5,100,1028.5,100,14.0,100,13.7,100,127,100,129,100,18.4,100,18.0,100
2022-10-14T04:40:00Z,44489,9302001,WEST CHEDABUCTO BAY,0,45.48687,-61.14100000000001,18,2022-10-14T04:40:00.000Z,110,2022-10-14T04:42:45.702Z,45.48723,100,-61.14106999999999,100,12.1,100,13.2,100,12.5,100,0.0,100,3.6,100,,-1,,-1,,-1,,-1,,-1,,-1,,-1,,-1,1028.5,100,13.3,100,137,100,16.6,100,5,100,0.5,1,0,1,1028.5,1,1028.5,100,1028.6,100,13.3,100,12.6,100,137,100,139,100,16.6,100,16.2,100
2022-10-14T04:50:00Z,44489,9302001,WEST CHEDABUCTO BAY,0,45.48687,-61.14100000000001,18,2022-10-14T04:50:00.000Z,110,2022-10-14T04:52:51.245Z,45.48723,100,-61.14103000000001,100,12.0,100,13.3,100,12.5,100,0.0,100,3.6,100,,-1,,-1,,-1,,-1,,-1,,-1,,-1,,-1,1028.7,100,13.3,100,121,100,18.0,100,5,100,0.6,1,1,1,1028.7,1,1028.7,100,1028.7,100,13.3,100,12.6,100,121,100,124,100,18.0,100,17.3,100
2022-10-14T05:00:00Z,44489,9302001,WEST CHEDABUCTO BAY,0,45.48687,-61.14100000000001,18,2022-10-14T05:00:00.000Z,108,2022-10-14T05:02:48.488Z,45.48723,100,-61.14103000000001,100,12.0,100,13.3,100,12.5,100,0.0,100,3.6,100,0.1,100,0.3,100,3.1,100,0.2,100,0.2,100,2.8,100,2.7,100,2.4,100,1028.8,100,13.0,100,131,100,19.1,100,5,100,0.9,1,1,1,1028.8,1,1028.8,100,1028.8,100,13.0,100,13.0,100,131,100,134,100,19.1,100,19.1,100
2022-10-14T05:10:00Z,44489,9302001,WEST CHEDABUCTO BAY,0,45.48687,-61.14100000000001,18,2022-10-14T05:10:00.000Z,110,2022-10-14T05:15:52.761Z,45.48722,100,-61.14103000000001,100,12.1,100,13.3,100,12.5,100,0.0,100,3.6,100,,-1,,-1,,-1,,-1,,-1,,-1,,-1,,-1,1028.8,100,12.2,100,146,100,18.7,100,5,100,0.8,1,1,1,1028.8,1,1028.8,100,1028.8,100,12.2,100,12.2,100,146,100,150,100,18.7,100,19.1,100
2022-10-14T05:20:00Z,44489,9302001,WEST CHEDABUCTO BAY,0,45.48687,-61.14100000000001,18,2022-10-14T05:20:00.000Z,110,2022-10-14T05:22:57.339Z,45.48722,100,-61.14103000000001,100,12.1,100,13.4,100,12.5,100,0.0,100,3.6,100,,-1,,-1,,-1,,-1,,-1,,-1,,-1,,-1,1029.0,100,13.3,100,117,100,17.3,100,5,100,0.8,1,3,1,1029.0,1,1029.0,100,1029.0,100,13.3,100,13.3,100,117,100,121,100,17.3,100,17.6,100
2022-10-14T05:30:00Z,44489,9302001,WEST CHEDABUCTO BAY,0,45.48687,-61.14100000000001,18,2022-10-14T05:30:00.000Z,110,2022-10-14T05:32:59.680Z,45.48725,100,-61.14106999999999,100,12.1,100,13.3,100,12.5,100,0.0,100,3.6,100,,-1,,-1,,-1,,-1,,-1,,-1,,-1,,-1,1029.1,100,15.1,100,116,100,18.0,100,5,100,0.8,1,3,1,1029.1,1,1029.1,100,1029.1,100,15.1,100,15.1,100,116,100,121,100,18.0,100,18.0,100
2022-10-14T05:40:00Z,44489,9302001,WEST CHEDABUCTO BAY,0,45.48687,-61.14100000000001,18,2022-10-14T05:40:00.000Z,110,2022-10-14T05:43:02.662Z,45.48723,100,-61.14103000000001,100,12.0,100,13.4,100,12.5,100,0.0,100,3.6,100,,-1,,-1,,-1,,-1,,-1,,-1,,-1,,-1,1029.2,100,11.5,100,110,100,15.5,100,5,100,0.8,1,3,1,1029.2,1,1029.2,100,1029.2,100,11.5,100,11.5,100,110,100,114,100,15.5,100,15.5,100
2022-10-14T05:50:00Z,44489,9302001,WEST CHEDABUCTO BAY,0,45.48687,-61.14100000000001,18,2022-10-14T05:50:00.000Z,110,2022-10-14T05:52:58.763Z,45.4872,100,-61.14103000000001,100,11.9,100,13.4,100,12.4,100,0.0,100,3.6,100,,-1,,-1,,-1,,-1,,-1,,-1,,-1,,-1,1029.1,100,13.3,100,101,100,16.9,100,5,100,0.7,1,3,1,1029.1,1,1029.1,100,1029.2,100,13.3,100,13.3,100,101,100,105,100,16.9,100,16.9,100
2022-10-14T06:00:00Z,44489,9302001,WEST CHEDABUCTO BAY,0,45.48687,-61.14100000000001,18,2022-10-14T06:00:00.000Z,108,2022-10-14T06:03:01.350Z,45.48722,100,-61.14103000000001,100,11.8,100,13.4,100,12.5,100,0.0,100,3.6,100,0.1,100,0.4,100,3.1,100,0.2,100,0.3,100,3.2,100,2.7,100,2.7,100,1029.1,100,13.0,100,93,100,15.5,100,5,100,0.4,1,3,1,1029.1,1,1029.1,100,1029.1,100,13.0,100,13.0,100,93,100,97,100,15.5,100,15.5,100
2022-10-14T06:10:00Z,44489,9302001,WEST CHEDABUCTO BAY,0,45.48687,-61.14100000000001,18,2022-10-14T06:10:00.000Z,110,2022-10-14T06:16:18.502Z,45.48722,100,-61.14102,100,11.7,100,13.4,100,12.5,100,0.0,100,3.6,100,,-1,,-1,,-1,,-1,,-1,,-1,,-1,,-1,1029.1,100,12.6,100,93,100,15.1,100,5,100,0.6,1,3,1,1029.1,1,1029.1,100,1029.2,100,12.6,100,12.6,100,93,100,97,100,15.1,100,15.1,100
2022-10-14T06:20:00Z,44489,9302001,WEST CHEDABUCTO BAY,0,45.48687,-61.14100000000001,18,2022-10-14T06:20:00.000Z,110,2022-10-14T06:23:17.220Z,45.4872,100,-61.14103000000001,100,11.5,100,13.3,100,12.5,100,0.0,100,3.6,100,,-1,,-1,,-1,,-1,,-1,,-1,,-1,,-1,1029.2,100,10.4,100,87,100,13.3,100,5,100,0.8,1,3,1,1029.2,1,1029.2,100,1029.3,100,10.4,100,10.4,100,87,100,91,100,13.3,100,13.3,100
2022-10-14T06:30:00Z,44489,9302001,WEST CHEDABUCTO BAY,0,45.48687,-61.14100000000001,18,2022-10-14T06:30:00.000Z,110,2022-10-14T06:33:13.684Z,45.48722,100,-61.14102,100,11.3,100,13.3,100,12.5,100,0.0,100,3.6,100,,-1,,-1,,-1,,-1,,-1,,-1,,-1,,-1,1029.3,100,11.9,100,84,100,14.0,100,5,100,0.7,1,3,1,1029.3,1,1029.3,100,1029.3,100,11.9,100,11.9,100,84,100,88,100,14.0,100,14.0,100
2022-10-14T06:40:00Z,44489,9302001,WEST CHEDABUCTO BAY,0,45.48687,-61.14100000000001,18,2022-10-14T06:40:00.000Z,110,2022-10-14T06:43:19.960Z,45.48723,100,-61.14102,100,11.3,100,13.3,100,12.4,100,0.0,100,3.6,100,,-1,,-1,,-1,,-1,,-1,,-1,,-1,,-1,1029.4,100,9.7,100,91,100,12.2,100,5,100,0.8,1,3,1,1029.4,1,1029.4,100,1029.4,100,9.7,100,9.7,100,91,100,95,100,12.2,100,12.6,100
2022-10-14T06:50:00Z,44489,9302001,WEST CHEDABUCTO BAY,0,45.48687,-61.14100000000001,18,2022-10-14T06:50:00.000Z,110,2022-10-14T06:53:21.428Z,45.48722,100,-61.14103000000001,100,11.3,100,13.4,100,12.4,100,0.0,100,3.6,100,,-1,,-1,,-1,,-1,,-1,,-1,,-1,,-1,1029.3,100,9.0,100,97,100,13.3,100,5,100,0.7,1,3,1,1029.3,1,1029.3,100,1029.3,100,9.0,100,8.6,100,97,100,102,100,13.3,100,13.7,100
2022-10-14T07:00:00Z,44489,9302001,WEST CHEDABUCTO BAY,0,45.48687,-61.14100000000001,18,2022-10-14T07:00:00.000Z,108,2022-10-14T07:03:20.415Z,45.48723,100,-61.14102,100,11.5,100,13.4,100,12.4,100,0.0,100,3.6,100,0.1,100,0.3,100,3.0,100,0.2,100,0.2,100,2.9,100,2.7,100,2.3,100,1029.2,100,11.5,100,102,100,15.8,100,5,100,0.5,1,2,1,1029.2,1,1029.2,100,1029.2,100,11.5,100,11.5,100,102,100,106,100,15.8,100,15.5,100
2022-10-14T07:10:00Z,44489,9302001,WEST CHEDABUCTO BAY,0,45.48687,-61.14100000000001,18,2022-10-14T07:10:00.000Z,110,2022-10-14T07:16:35.868Z,45.4872,100,-61.14103000000001,100,11.6,100,13.3,100,12.4,100,0.0,100,3.6,100,,-1,,-1,,-1,,-1,,-1,,-1,,-1,,-1,1029.1,100,9.7,100,99,100,12.2,100,5,100,0.5,1,1,1,1029.1,1,1029.1,100,1029.1,100,9.7,100,9.7,100,99,100,103,100,12.2,100,11.9,100
2022-10-14T07:20:00Z,44489,9302001,WEST CHEDABUCTO BAY,0,45.48687,-61.14100000000001,18,2022-10-14T07:20:00.000Z,110,2022-10-14T07:23:32.309Z,45.48722,100,-61.14105,100,11.7,100,13.3,100,12.4,100,0.0,100,3.6,100,,-1,,-1,,-1,,-1,,-1,,-1,,-1,,-1,1029.0,100,11.5,100,79,100,14.0,100,5,100,0.4,1,0,1,1029.0,1,1029.0,100,1029.0,100,11.5,100,11.5,100,79,100,84,100,14.0,100,14.0,100
2022-10-14T07:30:00Z,44489,9302001,WEST CHEDABUCTO BAY,0,45.48687,-61.14100000000001,18,2022-10-14T07:30:00.000Z,110,2022-10-14T07:33:39.001Z,45.4872,100,-61.14105,100,11.7,100,13.3,100,12.4,100,0.0,100,3.6,100,,-1,,-1,,-1,,-1,,-1,,-1,,-1,,-1,1028.9,100,12.6,100,74,100,15.8,100,5,100,0.5,1,0,1,1028.9,1,1028.9,100,1028.9,100,12.6,100,12.2,100,74,100,78,100,15.8,100,15.8,100
2022-10-14T07:40:00Z,44489,9302001,WEST CHEDABUCTO BAY,0,45.48687,-61.14100000000001,18,2022-10-14T07:40:00.000Z,110,2022-10-14T07:43:35.842Z,45.4872,100,-61.14103000000001,100,11.7,100,13.3,100,12.4,100,0.0,100,3.6,100,,-1,,-1,,-1,,-1,,-1,,-1,,-1,,-1,1028.9,100,13.3,100,76,100,17.6,100,5,100,0.4,1,0,1,1028.9,1,1028.9,100,1028.9,100,13.3,100,13.3,100,76,100,80,100,17.6,100,17.6,100
2022-10-14T07:50:00Z,44489,9302001,WEST CHEDABUCTO BAY,0,45.48687,-61.14100000000001,18,2022-10-14T07:50:00.000Z,110,2022-10-14T07:53:41.918Z,45.4872,100,-61.14108,100,11.7,100,13.3,100,12.4,100,0.0,100,3.6,100,,-1,,-1,,-1,,-1,,-1,,-1,,-1,,-1,1028.9,100,16.2,100,79,100,19.1,100,5,100,0.2,1,0,1,1028.9,1,1028.9,100,1028.9,100,16.2,100,16.2,100,79,100,83,100,19.1,100,19.1,100
2022-10-14T08:00:00Z,44489,9302001,WEST CHEDABUCTO BAY,0,45.48687,-61.14100000000001,18,2022-10-14T08:00:00.000Z,108,2022-10-14T08:03:37.963Z,45.4872,100,-61.14105,100,11.8,100,13.3,100,12.4,100,0.0,100,3.6,100,0.1,100,0.3,100,4.0,100,0.2,100,0.2,100,4.8,100,3.1,100,8.7,100,1028.9,100,15.5,100,76,100,18.0,100,5,100,0.1,1,0,1,1028.9,1,1028.9,100,1028.9,100,15.5,100,15.5,100,76,100,81,100,18.0,100,18.4,100
2022-10-14T08:10:00Z,44489,9302001,WEST CHEDABUCTO BAY,0,45.48687,-61.14100000000001,18,2022-10-14T08:10:00.000Z,110,2022-10-14T08:15:42.684Z,45.4872,100,-61.14106999999999,100,11.7,100,13.3,100,12.4,100,0.0,100,3.6,100,,-1,,-1,,-1,,-1,,-1,,-1,,-1,,-1,1029.0,100,13.0,100,67,100,15.5,100,5,100,0.2,1,0,1,1029.0,1,1029.0,100,1029.0,100,13.0,100,13.0,100,67,100,71,100,15.5,100,15.8,100
2022-10-14T08:20:00Z,44489,9302001,WEST CHEDABUCTO BAY,0,45.48687,-61.14100000000001,18,2022-10-14T08:20:00.000Z,110,2022-10-14T08:22:43.666Z,45.48718,100,-61.14100000000001,100,11.7,100,13.3,100,12.4,100,0.0,100,3.6,100,,-1,,-1,,-1,,-1,,-1,,-1,,-1,,-1,1029.1,100,11.5,100,70,100,14.0,100,5,100,0.1,1,1,1,1029.1,1,1029.1,100,1029.1,100,11.5,100,11.5,100,70,100,74,100,14.0,100,14.0,100
2022-10-14T08:30:00Z,44489,9302001,WEST CHEDABUCTO BAY,0,45.48687,-61.14100000000001,18,2022-10-14T08:30:00.000Z,110,2022-10-14T08:33:45.136Z,45.48722,100,-61.14102,100,11.6,100,13.3,100,12.4,100,0.0,100,3.6,100,,-1,,-1,,-1,,-1,,-1,,-1,,-1,,-1,1029.2,100,10.1,100,65,100,15.5,100,5,100,0.1,1,3,1,1029.2,1,1029.2,100,1029.2,100,10.1,100,10.1,100,65,100,69,100,15.5,100,15.1,100
2022-10-14T08:40:00Z,44489,9302001,WEST CHEDABUCTO BAY,0,45.48687,-61.14100000000001,18,2022-10-14T08:40:00.000Z,110,2022-10-14T08:42:49.012Z,45.4872,100,-61.14105,100,11.9,100,13.3,100,12.4,100,0.0,100,3.6,100,,-1,,-1,,-1,,-1,,-1,,-1,,-1,,-1,1029.3,100,15.8,100,88,100,19.8,100,5,100,0.1,1,3,1,1029.3,1,1029.3,100,1029.3,100,15.8,100,16.2,100,88,100,92,100,19.8,100,19.8,100
2022-10-14T08:50:00Z,44489,9302001,WEST CHEDABUCTO BAY,0,45.48687,-61.14100000000001,18,2022-10-14T08:50:00.000Z,110,2022-10-14T08:52:50.961Z,45.48722,100,-61.14108,100,11.8,100,13.3,100,12.4,100,0.0,100,3.6,100,,-1,,-1,,-1,,-1,,-1,,-1,,-1,,-1,1029.4,100,15.8,100,89,100,19.1,100,5,100,0.2,1,3,1,1029.4,1,1029.4,100,1029.4,100,15.8,100,16.2,100,89,100,93,100,19.1,100,19.4,100
2022-10-14T09:00:00Z,44489,9302001,WEST CHEDABUCTO BAY,0,45.48687,-61.14100000000001,18,2022-10-14T09:00:00.000Z,108,2022-10-14T09:02:52.974Z,45.4872,100,-61.1411,100,11.9,100,13.3,100,12.4,100,0.0,100,3.6,100,0.1,100,0.4,100,3.8,100,0.2,100,0.2,100,4.8,100,2.9,100,8.0,100,1029.4,100,14.8,100,92,100,18.0,100,5,100,0.3,1,3,1,1029.4,1,1029.4,100,1029.4,100,14.8,100,14.4,100,92,100,95,100,18.0,100,17.6,100
2022-10-14T09:10:00Z,44489,9302001,WEST CHEDABUCTO BAY,0,45.48687,-61.14100000000001,18,2022-10-14T09:10:00.000Z,110,2022-10-14T09:16:03.665Z,45.48722,100,-61.14113,100,11.8,100,13.3,100,12.4,100,0.0,100,3.6,100,,-1,,-1,,-1,,-1,,-1,,-1,,-1,,-1,1029.4,100,15.1,100,81,100,17.6,100,5,100,0.2,1,3,1,1029.4,1,1029.4,100,1029.4,100,15.1,100,14.8,100,81,100,83,100,17.6,100,17.6,100